EW9023 Weather Reports


Display with metric or nautical units.
time (UTC)temp
F
wind
direction
speed
MPH
gust
MPH
rain 1hr
in
rain 24hr
in
rain mn
in
humidity
%
barometer
mb
20190218075616 44 0.0 0.0 0.00 0.00 0.00 79 1016.0
20190218074622 44 0 1.0 2.0 0.00 0.00 0.00 77 1016.2
20190218073617 44 0.0 0.0 0.00 0.00 0.00 75 1016.2
20190218072617 43 0 1.0 2.0 0.00 0.00 0.00 72 1016.2
20190218065622 44 0 2.0 3.0 0.00 0.00 0.00 75 1016.3
20190218064617 44 22 3.0 4.0 0.00 0.00 0.00 72 1016.3
20190218063617 45 112 1.0 2.0 0.00 0.00 0.00 74 1016.4
20190218062617 45 112 1.0 1.0 0.00 0.00 0.00 77 1016.5
20190218061615 45 112 2.0 2.0 0.00 0.00 0.00 75 1016.5
20190218060617 45 0.0 0.0 0.00 0.00 0.00 66 1016.4
20190218055830 46 0.0 0.0 0.00 0.00 0.00 71 1016.4
20190218053617 46 112 1.0 2.0 0.00 0.00 0.00 72 1016.5
20190218052621 47 112 1.0 1.0 0.00 0.00 0.00 71 1016.6
20190218051617 47 112 6.0 7.0 0.00 0.00 0.00 67 1016.6
20190218050617 48 0.0 0.0 0.00 0.00 0.00 67 1016.5
20190218045627 48 0.0 0.0 0.00 0.00 0.00 72 1016.4
20190218044618 48 0.0 0.0 0.00 0.00 0.00 67 1016.4
20190218043617 49 0.0 0.0 0.00 0.00 0.00 72 1016.3
20190218042617 48 0.0 0.0 0.00 0.00 0.00 70 1016.3
20190218041621 49 0.0 0.0 0.00 0.00 0.00 65 1016.1
20190218040617 50 0.0 0.0 0.00 0.00 0.00 70 1016.0
20190218035618 51 0.0 0.0 0.00 0.00 0.00 68 1015.8
20190218034617 51 0.0 0.0 0.00 0.00 0.00 65 1015.7
20190218033618 51 0.0 0.0 0.00 0.00 0.00 67 1015.5
20190218032615 52 0.0 0.0 0.00 0.00 0.00 69 1015.5
20190218031616 53 112 3.0 3.0 0.00 0.00 0.00 63 1015.5
20190218030617 54 0.0 0.0 0.00 0.00 0.00 66 1015.6
20190218025618 55 225 1.0 1.0 0.00 0.00 0.00 61 1015.5
20190218024616 56 225 2.0 3.0 0.00 0.00 0.00 61 1015.4
20190218023616 57 225 2.0 3.0 0.00 0.00 0.00 62 1015.4
20190218022617 57 225 1.0 2.0 0.00 0.00 0.00 60 1015.3
20190218021617 58 225 2.0 2.0 0.00 0.00 0.00 60 1015.3
20190218020616 59 225 1.0 2.0 0.00 0.00 0.00 59 1015.1
20190218015622 60 225 3.0 4.0 0.00 0.00 0.00 58 1015.1
20190218014617 61 225 3.0 4.0 0.00 0.00 0.00 56 1015.0
20190218013618 62 225 4.0 6.0 0.00 0.00 0.00 54 1015.0
20190218012618 62 247 5.0 7.0 0.00 0.00 0.00 51 1015.0
20190218011619 64 247 6.0 7.0 0.00 0.00 0.00 49 1014.9
20190218010617 65 247 7.0 8.0 0.00 0.00 0.00 46 1014.9
20190218005617 66 247 7.0 8.0 0.00 0.00 0.00 43 1014.8
20190218004621 66 247 8.0 10.0 0.00 0.00 0.00 42 1014.8
20190218003618 67 247 7.0 8.0 0.00 0.00 0.00 41 1014.8
20190218002616 67 247 5.0 7.0 0.00 0.00 0.00 41 1014.8
20190218001617 67 247 4.0 6.0 0.00 0.00 0.00 41 1014.8
20190218000616 67 270 8.0 10.0 0.00 0.00 0.00 43 1014.8
20190217235616 67 270 6.0 7.0 0.00 0.00 0.00 42 1014.8
20190217234616 67 225 6.0 9.0 0.00 0.00 0.00 41 1014.8
20190217233616 67 247 8.0 9.0 0.00 0.00 0.00 43 1014.8
20190217232616 67 270 4.0 6.0 0.00 0.00 0.00 43 1014.8
20190217231616 67 247 5.0 8.0 0.00 0.00 0.00 45 1014.7
20190217230621 66 202 6.0 7.0 0.00 0.00 0.00 46 1014.8
20190217225616 66 247 8.0 10.0 0.00 0.00 0.00 47 1014.8
20190217224617 66 247 9.0 11.0 0.00 0.00 0.00 47 1015.0
20190217223617 67 270 10.0 12.0 0.00 0.00 0.00 46 1014.9
20190217222617 68 225 13.0 16.0 0.00 0.00 0.00 46 1015.0
20190217221616 68 247 10.0 12.0 0.00 0.00 0.00 42 1015.1
20190217220616 68 225 8.0 10.0 0.00 0.00 0.00 41 1015.1
20190217215616 68 270 4.0 7.0 0.00 0.00 0.00 40 1015.1
20190217214617 68 292 4.0 6.0 0.00 0.00 0.00 39 1015.3
20190217213616 69 292 6.0 7.0 0.00 0.00 0.00 38 1015.4
20190217212616 68 247 3.0 9.0 0.00 0.00 0.00 38 1015.4
20190217211616 68 292 8.0 10.0 0.00 0.00 0.00 37 1015.4
20190217210616 68 247 6.0 10.0 0.00 0.00 0.00 37 1015.5
20190217205616 68 337 4.0 9.0 0.00 0.00 0.00 37 1015.8
20190217204619 68 292 8.0 10.0 0.00 0.00 0.00 35 1016.1
20190217203617 68 315 4.0 7.0 0.00 0.00 0.00 34 1016.2
20190217202617 67 315 10.0 13.0 0.00 0.00 0.00 33 1016.3
20190217201616 68 292 9.0 11.0 0.00 0.00 0.00 34 1016.5
20190217200616 68 270 8.0 10.0 0.00 0.00 0.00 36 1016.7
20190217195621 67 292 9.0 13.0 0.00 0.00 0.00 35 1016.7
20190217194616 67 292 4.0 6.0 0.00 0.00 0.00 36 1016.9
20190217193616 67 292 8.0 10.0 0.00 0.00 0.00 35 1017.1
20190217192618 67 292 13.0 14.0 0.00 0.00 0.00 35 1017.2
20190217191627 68 292 12.0 16.0 0.00 0.00 0.00 34 1017.4
20190217190617 68 292 13.0 16.0 0.00 0.00 0.00 32 1017.5
20190217185616 67 270 10.0 13.0 0.00 0.00 0.00 31 1017.5
20190217184616 66 315 5.0 7.0 0.00 0.00 0.00 30 1017.6
20190217183616 66 337 10.0 11.0 0.00 0.00 0.00 30 1017.7
20190217182616 65 292 7.0 9.0 0.00 0.00 0.00 32 1017.7
20190217181615 65 292 8.0 13.0 0.00 0.00 0.00 31 1017.7
20190217180615 64 292 7.0 8.0 0.00 0.00 0.00 31 1017.9
20190217175616 63 315 7.0 8.0 0.00 0.00 0.00 32 1017.8
20190217174616 62 315 6.0 10.0 0.00 0.00 0.00 33 1017.6
20190217173615 61 337 5.0 8.0 0.00 0.00 0.00 33 1017.6
20190217172616 61 315 7.0 10.0 0.00 0.00 0.00 35 1017.6
20190217171616 60 315 5.0 6.0 0.00 0.00 0.00 36 1017.6
20190217170616 60 315 5.0 5.0 0.00 0.00 0.00 39 1017.6
20190217165623 59 315 5.0 7.0 0.00 0.00 0.00 39 1017.7
20190217164616 59 337 5.0 8.0 0.00 0.00 0.00 38 1017.7
20190217163616 58 337 8.0 10.0 0.00 0.00 0.00 39 1017.7
20190217162621 58 337 9.0 11.0 0.00 0.00 0.00 40 1017.8
20190217161615 58 337 9.0 10.0 0.00 0.00 0.00 44 1017.4
20190217160620 56 315 8.0 10.0 0.00 0.00 0.00 48 1017.3
20190217155615 54 315 8.0 11.0 0.00 0.00 0.00 49 1017.3
20190217154618 53 337 5.0 6.0 0.00 0.00 0.00 48 1017.3
20190217153617 51 337 6.0 8.0 0.00 0.00 0.00 50 1017.3
20190217152618 48 337 4.0 6.0 0.00 0.00 0.00 56 1017.1
20190217151617 44 0 2.0 3.0 0.00 0.00 0.00 60 1017.0
20190217150617 43 0 2.0 3.0 0.00 0.00 0.00 61 1016.7
20190217145628 42 0.0 0.0 0.00 0.00 0.00 63 1016.6
20190217144617 42 0.0 0.0 0.00 0.00 0.00 65 1016.5
20190217143616 42 0.0 0.0 0.00 0.00 0.00 63 1016.2
20190217142618 42 0.0 0.0 0.00 0.00 0.00 61 1016.0
20190217141615 42 0 3.0 3.0 0.00 0.00 0.00 59 1015.7
20190217140616 41 0 2.0 2.0 0.00 0.00 0.00 60 1015.6
20190217135616 41 0 1.0 2.0 0.00 0.00 0.00 61 1015.5
20190217134618 41 0 2.0 3.0 0.00 0.00 0.00 62 1015.3
20190217133620 41 0 2.0 3.0 0.00 0.00 0.00 61 1015.3
20190217132616 42 0 2.0 3.0 0.00 0.00 0.00 63 1015.2
20190217131628 42 0 2.0 3.0 0.00 0.00 0.00 63 1015.1
20190217130617 42 0 2.0 3.0 0.00 0.00 0.00 63 1015.1
20190217125619 41 337 2.0 2.0 0.00 0.00 0.00 61 1015.0
20190217124617 41 337 2.0 2.0 0.00 0.00 0.00 60 1014.8
20190217123618 41 337 2.0 3.0 0.00 0.00 0.00 61 1014.8
20190217122617 40 337 3.0 3.0 0.00 0.00 0.00 60 1014.5
20190217121617 42 0 3.0 4.0 0.00 0.00 0.00 59 1014.5
20190217120617 42 0 3.0 4.0 0.00 0.00 0.00 62 1014.4
20190217115617 42 0 2.0 3.0 0.00 0.00 0.00 59 1014.4
20190217114618 41 0 3.0 4.0 0.00 0.00 0.00 60 1014.4
20190217113618 40 337 4.0 4.0 0.00 0.00 0.00 59 1014.3
20190217112617 42 337 4.0 4.0 0.00 0.00 0.00 59 1014.3
20190217111616 43 45 2.0 3.0 0.00 0.00 0.00 62 1014.2
20190217110617 43 45 1.0 2.0 0.00 0.00 0.00 61 1014.2
20190217105617 44 45 2.0 2.0 0.00 0.00 0.00 58 1014.3
20190217104617 45 45 2.0 3.0 0.00 0.00 0.00 58 1014.3
20190217103617 44 45 1.0 2.0 0.00 0.00 0.00 58 1014.2
20190217102615 44 45 2.0 2.0 0.00 0.00 0.00 60 1014.4
20190217101617 42 67 6.0 7.0 0.00 0.00 0.00 60 1014.0
20190217100617 43 315 3.0 4.0 0.00 0.00 0.00 58 1014.0
20190217095617 44 292 2.0 2.0 0.00 0.00 0.00 58 1014.2
20190217094617 44 292 2.0 2.0 0.00 0.00 0.00 58 1014.2
20190217093616 45 292 3.0 3.0 0.00 0.00 0.00 56 1014.1
20190217092617 45 292 3.0 4.0 0.00 0.00 0.00 57 1014.1
20190217091617 43 270 4.0 6.0 0.00 0.00 0.00 62 1014.3
20190217090617 43 315 2.0 3.0 0.00 0.00 0.00 60 1014.2
20190217085617 44 315 3.0 3.0 0.00 0.00 0.00 63 1013.9
20190217084617 42 0.0 0.0 0.00 0.00 0.00 64 1014.2
20190217083617 42 0.0 0.0 0.00 0.00 0.00 58 1014.0
20190217082620 44 315 2.0 3.0 0.00 0.00 0.00 58 1014.1
20190217081617 46 67 2.0 3.0 0.00 0.00 0.00 59 1014.1
20190217080617 46 0.0 0.0 0.00 0.00 0.00 61 1014.0